| time (UTC) | temp C | wind direction | speed KPH | gust KPH | rain 1hr cm | rain 24hr cm | rain mn cm | humidity % | barometer mb |
| 20260507064559 | 12 | 117 | 1.6 | 8.0 | 0.00 | 0.76 | 0.00 | 67 | 1015.7 |
| 20260507063058 | 12 | 133 | 0.0 | 4.8 | 0.00 | 0.76 | 0.00 | 69 | 1015.7 |
| 20260507061552 | 11 | 19 | 0.0 | 4.8 | 0.00 | 0.76 | 0.00 | 71 | 1015.6 |
| 20260507060049 | 11 | 0 | 0.0 | 4.8 | 0.00 | 0.76 | 0.00 | 70 | 1015.4 |
| 20260507054554 | 10 | 0 | 0.0 | 4.8 | 0.00 | 0.94 | 0.00 | 70 | 1015.3 |
| 20260507053053 | 10 | 159 | 0.0 | 4.8 | 0.00 | 0.94 | 0.00 | 69 | 1015.1 |
| 20260507051558 | 10 | 0 | 0.0 | 6.4 | 0.00 | 0.94 | 0.00 | 69 | 1014.9 |
| 20260507044559 | 9 | 360 | 4.8 | 8.0 | 0.00 | 1.30 | 0.00 | 68 | 1014.6 |
| 20260507043053 | 8 | 335 | 4.8 | 8.0 | 0.00 | 1.30 | 0.00 | 69 | 1014.4 |
| 20260507041551 | 8 | 334 | 3.2 | 6.4 | 0.00 | 1.30 | 0.00 | 68 | 1014.3 |
| 20260507040051 | 8 | 13 | 3.2 | 6.4 | 0.00 | 1.30 | 0.00 | 66 | 1014.4 |
| 20260507034553 | 9 | 38 | 3.2 | 6.4 | 0.00 | 1.68 | 0.00 | 66 | 1014.4 |
| 20260507033056 | 9 | 227 | 0.0 | 3.2 | 0.00 | 1.68 | 0.00 | 67 | 1014.3 |
| 20260507031557 | 9 | 0 | 1.6 | 6.4 | 0.00 | 1.68 | 0.00 | 66 | 1014.3 |
| 20260507030053 | 9 | 319 | 3.2 | 9.7 | 0.00 | 1.68 | 0.00 | 69 | 1014.3 |
| 20260507024551 | 8 | 341 | 4.8 | 12.9 | 0.00 | 1.80 | 0.00 | 74 | 1014.4 |
| 20260507023051 | 9 | 329 | 4.8 | 9.7 | 0.00 | 1.80 | 0.00 | 75 | 1014.3 |
| 20260507021550 | 9 | 321 | 3.2 | 9.7 | 0.00 | 1.80 | 0.00 | 75 | 1014.2 |
| 20260507020058 | 9 | 328 | 3.2 | 12.9 | 0.00 | 1.80 | 0.00 | 74 | 1014.3 |
| 20260507014553 | 10 | 0 | 1.6 | 8.0 | 0.00 | 2.06 | 0.00 | 73 | 1014.2 |
| 20260507013101 | 10 | 325 | 4.8 | 9.7 | 0.00 | 2.06 | 0.00 | 73 | 1014.2 |
| 20260507011553 | 10 | 342 | 4.8 | 8.0 | 0.00 | 2.06 | 0.00 | 73 | 1014.3 |
| 20260507004551 | 10 | 338 | 4.8 | 9.7 | 0.00 | 2.24 | 0.00 | 72 | 1014.2 |
| 20260507003056 | 10 | 328 | 4.8 | 11.3 | 0.00 | 2.24 | 0.00 | 73 | 1014.0 |
| 20260507001554 | 11 | 338 | 4.8 | 9.7 | 0.00 | 2.24 | 0.00 | 72 | 1014.2 |
| 20260507000052 | 11 | 342 | 3.2 | 12.9 | 0.00 | 2.24 | 0.00 | 72 | 1014.3 |
| 20260506234554 | 11 | 355 | 4.8 | 14.5 | 0.00 | 2.39 | 0.00 | 72 | 1014.3 |
| 20260506233104 | 11 | 11 | 3.2 | 9.7 | 0.00 | 2.39 | 0.00 | 70 | 1014.4 |
| 20260506231600 | 11 | 360 | 3.2 | 8.0 | 0.00 | 2.39 | 0.00 | 69 | 1014.2 |
| 20260506230105 | 11 | 360 | 3.2 | 14.5 | 0.00 | 2.39 | 0.00 | 69 | 1014.3 |
| 20260506224559 | 11 | 360 | 4.8 | 11.3 | 0.00 | 2.49 | 0.00 | 68 | 1014.5 |
| 20260506223059 | 11 | 16 | 3.2 | 8.0 | 0.00 | 2.49 | 0.00 | 66 | 1014.5 |
| 20260506221600 | 11 | 319 | 3.2 | 11.3 | 0.00 | 2.49 | 0.00 | 63 | 1014.3 |
| 20260506220059 | 12 | 22 | 3.2 | 12.9 | 0.00 | 2.49 | 0.00 | 62 | 1014.4 |
| 20260506214601 | 12 | 360 | 1.6 | 6.4 | 0.00 | 2.49 | 2.49 | 60 | 1014.3 |
| 20260506213055 | 12 | 99 | 0.0 | 3.2 | 0.00 | 2.49 | 2.49 | 59 | 1014.1 |
| 20260506211610 | 12 | 181 | 0.0 | 9.7 | 0.00 | 2.49 | 2.49 | 55 | 1014.2 |
| 20260506210058 | 12 | 360 | 4.8 | 8.0 | 0.00 | 2.49 | 2.49 | 57 | 1014.2 |
| 20260506204556 | 12 | 0 | 0.0 | 8.0 | 0.00 | 2.49 | 2.49 | 59 | 1013.9 |
| 20260506203052 | 12 | 360 | 6.4 | 24.1 | 0.00 | 2.49 | 2.49 | 58 | 1013.4 |
| 20260506201553 | 13 | 360 | 11.3 | 30.6 | 0.00 | 2.49 | 2.49 | 59 | 1013.0 |
| 20260506200056 | 13 | 360 | 17.7 | 38.6 | 0.00 | 2.49 | 2.49 | 58 | 1013.0 |
| 20260506194601 | 13 | 360 | 11.3 | 29.0 | 0.00 | 2.49 | 2.49 | 58 | 1013.0 |
| 20260506193103 | 15 | 360 | 14.5 | 30.6 | 0.00 | 2.49 | 2.49 | 56 | 1012.9 |
| 20260506191555 | 14 | 360 | 4.8 | 22.5 | 0.00 | 2.49 | 2.49 | 56 | 1012.9 |
| 20260506190056 | 14 | 360 | 11.3 | 30.6 | 0.00 | 2.49 | 2.49 | 55 | 1012.6 |
| 20260506184550 | 15 | 360 | 4.8 | 30.6 | 0.00 | 2.49 | 2.49 | 53 | 1012.4 |
| 20260506183100 | 14 | 360 | 20.9 | 37.0 | 0.00 | 2.49 | 2.49 | 52 | 1012.3 |
| 20260506181549 | 13 | 360 | 4.8 | 20.9 | 0.00 | 2.49 | 2.49 | 56 | 1012.3 |
| 20260506180055 | 13 | 360 | 11.3 | 25.7 | 0.00 | 2.49 | 2.49 | 57 | 1012.3 |
| 20260506174552 | 13 | 360 | 9.7 | 25.7 | 0.00 | 2.49 | 2.49 | 56 | 1012.3 |
| 20260506173107 | 13 | 360 | 8.0 | 19.3 | 0.00 | 2.49 | 2.49 | 57 | 1012.2 |
| 20260506171558 | 13 | 360 | 6.4 | 19.3 | 0.00 | 2.49 | 2.49 | 56 | 1012.3 |
| 20260506164611 | 15 | 165 | 4.8 | 16.1 | 0.00 | 2.49 | 2.49 | 59 | 1012.2 |
| 20260506163058 | 15 | 224 | 3.2 | 17.7 | 0.00 | 2.49 | 2.49 | 56 | 1012.3 |
| 20260506161554 | 15 | 338 | 1.6 | 16.1 | 0.00 | 2.49 | 2.49 | 58 | 1012.3 |
| 20260506160105 | 15 | 56 | 4.8 | 19.3 | 0.00 | 2.49 | 2.49 | 59 | 1012.4 |
| 20260506154554 | 15 | 163 | 8.0 | 16.1 | 0.00 | 2.49 | 2.49 | 62 | 1012.4 |
| 20260506153050 | 16 | 182 | 8.0 | 14.5 | 0.00 | 2.49 | 2.49 | 63 | 1012.4 |
| 20260506151555 | 15 | 194 | 3.2 | 12.9 | 0.00 | 2.49 | 2.49 | 63 | 1012.3 |
| 20260506144609 | 16 | 170 | 1.6 | 19.3 | 0.00 | 2.49 | 2.49 | 65 | 1012.5 |
| 20260506143055 | 16 | 360 | 1.6 | 19.3 | 0.00 | 2.49 | 2.49 | 68 | 1012.3 |
| 20260506141610 | 15 | 167 | 8.0 | 20.9 | 0.00 | 2.49 | 2.49 | 67 | 1012.3 |
| 20260506140054 | 15 | 0 | 0.0 | 14.5 | 0.00 | 2.49 | 2.49 | 74 | 1012.3 |
| 20260506134601 | 15 | 189 | 4.8 | 12.9 | 0.00 | 2.49 | 2.49 | 76 | 1012.6 |
| 20260506133108 | 15 | 360 | 3.2 | 12.9 | 0.00 | 2.49 | 2.49 | 74 | 1012.5 |
| 20260506131557 | 14 | 360 | 3.2 | 14.5 | 0.03 | 2.49 | 2.49 | 76 | 1012.7 |
| 20260506130055 | 13 | 360 | 3.2 | 9.7 | 0.08 | 2.49 | 2.49 | 80 | 1012.8 |
| 20260506124549 | 12 | 333 | 1.6 | 11.3 | 0.18 | 2.49 | 2.49 | 82 | 1013.0 |
| 20260506123051 | 12 | 27 | 3.2 | 8.0 | 0.20 | 2.49 | 2.49 | 86 | 1013.3 |
| 20260506121610 | 12 | 360 | 4.8 | 9.7 | 0.23 | 2.44 | 2.44 | 86 | 1012.9 |
| 20260506120119 | 12 | 360 | 3.2 | 14.5 | 0.23 | 2.36 | 2.36 | 86 | 1012.4 |
| 20260506114551 | 12 | 13 | 3.2 | 19.3 | 0.15 | 2.29 | 2.29 | 86 | 1012.4 |
| 20260506113051 | 12 | 95 | 8.0 | 25.7 | 0.15 | 2.26 | 2.26 | 88 | 1012.5 |
| 20260506111555 | 13 | 263 | 8.0 | 17.7 | 0.08 | 2.21 | 2.21 | 91 | 1012.4 |
| 20260506110054 | 13 | 0 | 0.0 | 8.0 | 0.00 | 2.13 | 2.13 | 91 | 1012.4 |
| 20260506104550 | 13 | 68 | 1.6 | 9.7 | 0.00 | 2.16 | 2.13 | 91 | 1012.4 |
| 20260506103055 | 13 | 291 | 0.0 | 12.9 | 0.00 | 2.13 | 2.11 | 92 | 1012.3 |
| 20260506101552 | 12 | 21 | 3.2 | 11.3 | 0.00 | 2.13 | 2.11 | 92 | 1012.5 |
| 20260506100054 | 12 | 119 | 0.0 | 9.7 | 0.00 | 2.13 | 2.11 | 92 | 1012.4 |
| 20260506094551 | 12 | 0 | 0.0 | 12.9 | 0.05 | 2.44 | 2.11 | 93 | 1012.5 |
| 20260506093054 | 12 | 174 | 1.6 | 11.3 | 0.08 | 2.41 | 2.08 | 93 | 1012.7 |
| 20260506091556 | 12 | 129 | 4.8 | 12.9 | 0.08 | 2.41 | 2.08 | 92 | 1012.5 |
| 20260506090052 | 12 | 325 | 3.2 | 20.9 | 0.15 | 2.41 | 2.08 | 92 | 1012.5 |
| 20260506084548 | 12 | 169 | 4.8 | 19.3 | 0.10 | 2.54 | 2.06 | 92 | 1012.4 |
| 20260506083049 | 12 | 0 | 0.0 | 6.4 | 0.08 | 2.49 | 2.01 | 93 | 1012.4 |
| 20260506081554 | 12 | 0 | 0.0 | 6.4 | 0.08 | 2.46 | 1.98 | 93 | 1012.3 |
| 20260506073058 | 11 | 31 | 0.0 | 8.0 | 0.18 | 2.49 | 1.91 | 93 | 1012.2 |
| 20260506071556 | 11 | 0 | 0.0 | 4.8 | 0.18 | 2.46 | 1.88 | 93 | 1012.3 |
| 20260506070116 | 11 | 0 | 0.0 | 3.2 | 0.15 | 2.44 | 1.88 | 93 | 1012.4 |